NOS7420 LROP-LIPX

Flight info

Callsign NOS7420
Flight time N/A
Altitude 34000
Route POLUN DCT VIKBI DCT ELDET DCT LELTI DCT ANASA DCT ROTAR DCT TULIK DCT AKADO M196 KOPER L614 OSTEG
Aircraft B738/M-SDE2E3FGHIRWXY/LB1

Departure

Time 2026-04-30 22:22
Airport Bucharest Henri Coandă International Airport (LROP)

Arrival

Time N/A
Airport Verona Villafranca Valerio Catullo Airport (LIPX)
Time Latitude Longitude Altitude Speed Heading
2026-04-30 22:02 44.56883 26.08822 319 ft 0 kts 173°
2026-04-30 22:09 44.56882 26.08822 319 ft 0 kts 173°
2026-04-30 22:13 44.56897 26.08820 319 ft 4 kts 173°
2026-04-30 22:13 44.56923 26.08815 317 ft 4 kts 182°
2026-04-30 22:13 44.56939 26.08827 319 ft 4 kts 257°
2026-04-30 22:13 44.56942 26.08856 319 ft 4 kts 263°
2026-04-30 22:14 44.56944 26.08870 320 ft 1 kts 263°
2026-04-30 22:17 44.56937 26.08805 319 ft 10 kts 263°
2026-04-30 22:18 44.56929 26.08683 319 ft 14 kts 264°
2026-04-30 22:18 44.56890 26.08426 318 ft 13 kts 252°
2026-04-30 22:19 44.56811 26.08207 319 ft 12 kts 242°
2026-04-30 22:19 44.56775 26.08100 318 ft 12 kts 254°
2026-04-30 22:19 44.56732 26.07878 318 ft 13 kts 254°
2026-04-30 22:20 44.56704 26.07739 318 ft 7 kts 255°
2026-04-30 22:20 44.56629 26.07669 319 ft 8 kts 175°
2026-04-30 22:20 44.56541 26.07681 317 ft 16 kts 174°
2026-04-30 22:21 44.56478 26.07705 318 ft 2 kts 131°
2026-04-30 22:21 44.56472 26.07749 318 ft 0 kts 86°
2026-04-30 22:21 44.56472 26.07750 318 ft 0 kts 86°
2026-04-30 22:21 44.56473 26.07767 319 ft 10 kts 85°
2026-04-30 22:22 44.56503 26.08159 320 ft 81 kts 83°
2026-04-30 22:22 44.56594 26.09318 319 ft 156 kts 84°
2026-04-30 22:22 44.56716 26.10996 861 ft 178 kts 83°
2026-04-30 22:22 44.56864 26.12721 1921 ft 177 kts 81°
2026-04-30 22:23 44.57053 26.14432 2757 ft 186 kts 77°
2026-04-30 22:23 44.57246 26.16358 3032 ft 213 kts 83°
2026-04-30 22:23 44.57372 26.18492 3547 ft 223 kts 83°
2026-04-30 22:23 44.57509 26.20673 4253 ft 226 kts 83°
2026-04-30 22:24 44.57668 26.22872 5035 ft 227 kts 82°
2026-04-30 22:24 44.57843 26.25082 5720 ft 231 kts 81°
2026-04-30 22:24 44.58025 26.27341 6391 ft 236 kts 83°
2026-04-30 22:24 44.57833 26.29659 6835 ft 258 kts 109°
2026-04-30 22:25 44.56840 26.31871 7454 ft 273 kts 131°
2026-04-30 22:25 44.55364 26.33529 8194 ft 282 kts 153°
2026-04-30 22:25 44.53450 26.34172 9076 ft 285 kts 175°
2026-04-30 22:26 44.45240 26.35271 11141 ft 338 kts 174°
2026-04-30 22:26 44.42860 26.35654 11724 ft 347 kts 174°
2026-04-30 22:27 44.40446 26.35933 12491 ft 350 kts 179°
2026-04-30 22:27 44.38037 26.35805 13282 ft 351 kts 189°
2026-04-30 22:27 44.34156 26.32100 14780 ft 347 kts 245°
2026-04-30 22:28 44.33559 26.25566 16445 ft 341 kts 271°
2026-04-30 22:28 44.33440 26.22236 17092 ft 346 kts 264°
2026-04-30 22:29 44.31727 26.12387 19261 ft 350 kts 256°
2026-04-30 22:29 44.31032 26.09110 19816 ft 353 kts 256°
2026-04-30 22:30 44.28239 25.95833 22203 ft 360 kts 256°
2026-04-30 22:31 44.26137 25.85782 23856 ft 366 kts 256°
2026-04-30 22:32 44.24041 25.75483 25138 ft 372 kts 260°
2026-04-30 22:32 44.23452 25.68314 25994 ft 374 kts 270°
2026-04-30 22:33 44.23873 25.57384 27208 ft 379 kts 273°
2026-04-30 22:33 44.24000 25.49987 27934 ft 384 kts 270°
2026-04-30 22:34 44.23881 25.38737 29047 ft 389 kts 270°
2026-04-30 22:35 44.23794 25.31141 29724 ft 393 kts 270°
2026-04-30 22:36 44.23762 25.15842 30964 ft 397 kts 273°
2026-04-30 22:36 44.23897 25.12013 31396 ft 394 kts 274°
2026-04-30 22:37 44.24530 25.00602 32361 ft 393 kts 275°
2026-04-30 22:37 44.24711 24.96806 32761 ft 391 kts 274°
2026-04-30 22:37 44.25021 24.89258 33408 ft 390 kts 274°
2026-04-30 22:38 44.25304 24.81719 34095 ft 387 kts 274°
2026-04-30 22:38 44.25585 24.74189 34333 ft 393 kts 274°
2026-04-30 22:39 44.25726 24.70382 34354 ft 393 kts 274°
2026-04-30 22:40 44.26486 24.47923 34372 ft 384 kts 274°
2026-04-30 22:41 44.27072 24.29345 34374 ft 384 kts 273°
2026-04-30 22:43 44.27738 24.06978 34382 ft 385 kts 273°
2026-04-30 22:44 44.28157 23.92105 34371 ft 385 kts 273°
2026-04-30 22:45 44.28750 23.69727 34370 ft 384 kts 273°
2026-04-30 22:47 44.29290 23.47406 34375 ft 383 kts 273°
2026-04-30 22:48 44.29637 23.32587 34369 ft 382 kts 273°
2026-04-30 22:49 44.30141 23.10430 34358 ft 381 kts 273°
2026-04-30 22:51 44.30601 22.88230 34370 ft 387 kts 273°
2026-04-30 22:51 44.30749 22.80599 34369 ft 399 kts 272°
2026-04-30 22:52 44.30823 22.76702 34371 ft 402 kts 272°
2026-04-30 22:53 44.31105 22.61105 34363 ft 402 kts 272°
2026-04-30 22:53 44.31783 22.49464 34389 ft 400 kts 281°
2026-04-30 22:55 44.34726 22.30524 34344 ft 398 kts 281°
2026-04-30 22:56 44.36879 22.15393 34333 ft 396 kts 281°
2026-04-30 22:57 44.39486 21.96581 34353 ft 395 kts 281°
2026-04-30 22:58 44.41551 21.81519 34350 ft 393 kts 281°
2026-04-30 22:59 44.44597 21.59025 34341 ft 392 kts 281°